Погода в Шахтах

Россия / Ростовская область     47°42′34″N   40°12′56″E
темп.,
°C
ветер,
м/с
пор.,
м/с
влажн.,
%
обл.,
%
осадки,
мм/ч
давл.,
гПа
погр.,
м
13 июня, вс
вс1300:00+16зюз23835 0.0 101277
03:00+16зюз249019 0.0 101280
06:00+17ююз238959 0.0 1011149
09:00+22юз347099 0.1 1011808
12:00+25юз345198 0.4 10111814
15:00+24юз3458100 0.6 1011662
18:00+24юз345528 0.1 10111020
21:00+20зюз1270100 0.1 101216
14 июня, пн
пн1400:00+18з11721 0.0 101211
03:00+17ссз01770 0.0 101211
06:00+19ссв11745 0.0 101247
09:00+24в125877 0.3 1012585
12:00+26вюв224698 0.4 10122130
15:00+25св225695 0.4 10131017
18:00+24св2359100 0.0 1012494
21:00+22всв3666100 0.0 1012162
15 июня, вт
вт1500:00+19всв358283 0.0 1012115
03:00+17всв36895 0.0 1011141
06:00+18всв35852 0.0 1012197
09:00+23всв346799 0.0 1011795
12:00+25в3355100 0.0 10101333
15:00+27юв2148100 0.0 10101645
18:00+26ююв115398 0.0 10091254
21:00+22вюв11635 0.0 100911
16 июня, ср
ср1600:00+21вюв00700 0.0 100911
03:00+19св11770 0.0 100913
06:00+20св2377100 0.0 101080
09:00+24св4563100 0.0 1009664
12:00+25в5764100 0.1 10081009
15:00+21юз7990100 12.5 1006627
18:00+18ссв6148981 21.0 1010437
21:00+18юв379867 21.0 1011276
17 июня, чт
чт1700:00+17ююв229832 0.0 101147
03:00+16з229827 0.0 101239
06:00+17ссз23910 0.0 1012116
09:00+22с33672 0.0 1012585
12:00+24св3470100 0.3 10121124
15:00+21зюз3393100 9.6 1011132
18:00+19зсз6998100 28.1 1010327
21:00+18зсз2397100 63.0 1011104